Regional Weather Roundup
Issued by NWS Kansas City/Pleasant Hill, MO

Home | Current Version | Previous Version | Graphics & Text | Print | Product List | Glossary Off
Versions: 1 2 3 4 5 6 7 8 9 10 11 12 13 14 15 16 17 18 19 20 21 22 23 24 25 26 27 28 29 30 31 32 33 34 35 36 37 38 39 40 41 42 43 44 45 46 47 48 49 50

000
ASUS43 KEAX 291011
RWREAX

WEATHER ROUNDUP FOR EASTERN KANSAS AND NORTHWEST MISSOURI
NATIONAL WEATHER SERVICE KANSAS CITY/PLEASANT HILL MO
500 AM CDT TUE JUL 29 2014

KSZ040-057-103>105-MOZ028-029-037-043-291100-
...KANSAS CITY METROPOLITAN AREA...

CITY           SKY/WX    TMP DP  RH WIND       PRES   REMARKS
K.C. INTL      PTCLDY    61  57  87 NW5       30.16S
K.C. DOWNTOWN  CLEAR     64  59  83 CALM      30.15S
LEES SUMMIT    CLEAR     59  57  93 SW3       30.17R
OLATHE - IXD   CLEAR     58  56  93 CALM      30.17S
OLATHE - OJC   CLEAR     61  58  90 CALM      30.16S
LAWRENCE       CLEAR     56  53  90 NW6       30.17S

$$

MOZ001>008-011>017-020>025-030>033-038>040-044>046-053-054-291100-
...NORTHERN AND CENTRAL MISSOURI...

CITY           SKY/WX    TMP DP  RH WIND       PRES   REMARKS
ST. JOSEPH     CLEAR     55  55 100 CALM      30.17R FOG
MOSBY          SUNNY     57  57 100 CALM      30.15S
WARRENSBURG    FOG       55  54  94 CALM      30.16S VSB 1/4
WHITEMAN AFB   CLEAR     56  48  74 NE1       30.15S
CLINTON        CLEAR     57  57 100 CALM      30.16S FOG
SEDALIA        CLEAR     61  54  77 CALM      30.16S
WARSAW         NOT AVBL
MARSHALL       CLEAR     63  61  94 CALM      30.17S
CHILLICOTHE      N/A     59  56  89 CALM      30.17S
MOBERLY        CLEAR     57  52  82 CALM      30.17R
KIRKSVILLE     CLEAR     54  52  93 W3        30.16S

$$

MOZ041-047>049-056>058-063>065-088>090-097-291100-
...EASTERN AND SOUTHERN MISSOURI...

CITY           SKY/WX    TMP DP  RH WIND       PRES   REMARKS
ST. LOUIS INTL CLEAR     60  55  83 CALM      30.14R
SPIRIT OF STL  CLEAR     54  52  94 CALM      30.13R FOG
COLUMBIA       PTCLDY    58  54  86 W5        30.16R
JEFFERSON CITY PTCLDY    57  54  89 CALM      30.16R
MEXICO         CLEAR    N/A N/A N/A CALM      30.15R
HANNIBAL       CLEAR     59  55  88 W3        30.14S
ROLLA          CLEAR     55  51  86 CALM      30.14S
LEBANON        CLEAR     57  54  88 CALM      30.17S
OSAGE BEACH    PTCLDY    55  52  88 CALM      30.16R
SPRINGFIELD    CLEAR     60  55  83 CALM      30.16S
BRANSON          N/A     57  55  94 CALM      30.18R
NEVADA         CLEAR     57  55  94 CALM      30.18R
JOPLIN         CLEAR     60  57  89 CALM      30.17R
WEST PLAINS    CLEAR     57  53  86 N3        30.17R

$$

IAZ060-094-KSZ022-034>040-054-083-096-NEZ052-066-093-291100-
...KANSAS...SOUTHEAST NEBRASKA AND IOWA...

CITY           SKY/WX    TMP DP  RH WIND       PRES   REMARKS
TOPEKA         MOCLDY    60  58  92 CALM      30.18S
MANHATTAN      MOCLDY    64  57  78 CALM      30.18F
EMPORIA        MOCLDY    62  58  86 CALM      30.18S
CHANUTE        MOCLDY    63  59  87 CALM      30.17S
WICHITA        PTCLDY    67  56  67 E8        30.17F
OMAHA          CLEAR     57  55  93 NW5       30.18S
LINCOLN        CLEAR     59  53  80 NW3       30.22R
FALLS CITY     CLEAR     56  54  93 W3        30.17R
LAMONI         CLEAR     57  56  96 NW3       30.16S
DES MOINES     CLEAR     59  55  87 NW7       30.16R

$$



USA.gov is the U.S. government's official web portal to all federal, state and local government web resources and services.